Portage, MI

7:15 PM EDT on September 30, 2016 (GMT -0400)
Kalamazoo-Battle Creek International

Weather History for KAZO - April, 2013

Change the Weather History Date:

Tuesday, April 16, 2013

  Actual Average Record
Temperature  
Mean Temperature 49 °F 49 °F  
Max Temperature 56 °F 60 °F 84 °F (2002)
Min Temperature 41 °F 39 °F 22 °F (2014)
Degree Days  
Heating Degree Days 16 16  
Month to date heating degree days 345 301  
Since 1 July heating degree days 5915 5958  
Cooling Degree Days 0 0  
Month to date cooling degree days 0 0  
Year to date cooling degree days 0 0  
Moisture  
Dew Point 39 °F    
Average Humidity 66    
Maximum Humidity 93    
Minimum Humidity 38    
Precipitation  
Precipitation 0.21 in 0.10 in 1.32 in (1972)
Month to date precipitation 2.81 1.55  
Year to date precipitation 8.15 7.04  
Sea Level Pressure  
Sea Level Pressure 30.06 in    
Wind  
Wind Speed 7 mph (NW)    
Max Wind Speed 17 mph    
Max Gust Speed 22 mph    
Visibility 8 miles    
Events Rain    
T = Trace of Precipitation, MM = Missing Value Source: NWS Daily Summary

Daily Weather History Graph

Daily Weather History Graph

Search for Another Location

Airport or City:

Trip Planner

Search our weather history database for the weather conditions in past years. The results will help you decide how hot, cold, wet, or windy it might be!

Date:

Astronomy

Apr. 16, 2013 Rise Set
Actual Time 6:59 AM EDT 8:25 PM EDT
Civil Twilight 6:30 AM EDT 8:54 PM EDT
Nautical Twilight 5:55 AM EDT 9:29 PM EDT
Astronomical Twilight 5:17 AM EDT 10:07 PM EDT
Moon 11:14 AM EDT (4/16) 1:24 AM EDT (4/16)
Length of Visible Light 14h 24m
Length of Day
13h 25m
Waxing Crescent, 33% of the Moon is Illuminated
Apr 16
Waxing Crescent
Apr 18
First Quarter
Apr 25
Full
May 2
Last Quarter
May 9
New

Hourly Weather History & Observations

Time (EDT) Temp. Windchill Dew Point Humidity Pressure Visibility Wind Dir Wind Speed Gust Speed Precip Events Conditions
12:13 AM 46.4 °F 40.1 °F 44.6 °F 93% 29.94 in 4.0 mi NNW 15.0 mph - 0.02 in Rain Rain
12:39 AM 46.4 °F 42.4 °F 44.6 °F 93% 29.94 in 2.5 mi NNW 8.1 mph - 0.07 in Rain Rain
12:53 AM 46.0 °F 42.5 °F 45.0 °F 96% 29.95 in 2.0 mi NNW 6.9 mph - 0.12 in Rain Heavy Rain
1:04 AM 46.4 °F 42.4 °F 44.6 °F 93% 29.94 in 4.0 mi NNW 8.1 mph - 0.02 in Rain Rain
1:23 AM 46.4 °F 42.9 °F 44.6 °F 93% 29.95 in 2.5 mi NNW 6.9 mph - 0.08 in Rain Heavy Rain
1:34 AM 46.4 °F 43.5 °F 44.6 °F 93% 29.95 in 6.0 mi NNW 5.8 mph - 0.08 in Rain Light Rain
1:45 AM 46.4 °F 42.9 °F 44.6 °F 93% 29.95 in 2.5 mi NW 6.9 mph - 0.11 in Rain Rain
1:49 AM 46.4 °F 44.3 °F 44.6 °F 93% 29.95 in 3.0 mi NNW 4.6 mph - 0.12 in Rain Rain
1:53 AM 46.0 °F 43.1 °F 45.0 °F 96% 29.96 in 3.0 mi WNW 5.8 mph - 0.13 in Rain Rain
2:53 AM 46.9 °F - 45.0 °F 93% 29.97 in 5.0 mi WNW 3.5 mph - 0.04 in Rain Light Rain
3:06 AM 46.4 °F 44.3 °F 44.6 °F 93% 29.96 in 6.0 mi WNW 4.6 mph - 0.00 in Rain Light Rain
3:15 AM 46.4 °F 43.5 °F 44.6 °F 93% 29.96 in 10.0 mi WNW 5.8 mph - 0.00 in   Overcast
3:53 AM 46.9 °F - 45.0 °F 93% 29.96 in 10.0 mi Calm Calm - 0.00 in   Overcast
4:53 AM 46.9 °F - 45.0 °F 93% 29.97 in 3.0 mi Variable 3.5 mph - 0.04 in Rain Light Rain
5:00 AM 46.4 °F 45.2 °F 44.6 °F 93% 29.97 in 2.5 mi West 3.5 mph - 0.01 in Rain Light Rain
5:08 AM 46.4 °F 42.9 °F 44.6 °F 93% 29.98 in 10.0 mi West 6.9 mph - 0.01 in Rain Light Rain
5:38 AM 46.4 °F 41.9 °F 44.6 °F 93% 29.97 in 10.0 mi NW 9.2 mph - 0.01 in   Overcast
5:53 AM 46.0 °F 40.2 °F 44.1 °F 93% 29.99 in 6.0 mi NNW 12.7 mph - 0.01 in Rain Light Rain
6:29 AM 42.8 °F 36.2 °F 39.2 °F 87% 30.01 in 10.0 mi NNW 12.7 mph - 0.00 in   Overcast
6:53 AM 43.0 °F 38.2 °F 39.9 °F 89% 30.02 in 10.0 mi NNW 8.1 mph - 0.00 in   Overcast
7:12 AM 42.8 °F 37.5 °F 39.2 °F 87% 30.02 in 10.0 mi NW 9.2 mph - N/A   Overcast
7:53 AM 43.0 °F 40.3 °F 39.9 °F 89% 30.06 in 10.0 mi WNW 4.6 mph - 0.00 in Rain Light Rain
8:53 AM 44.1 °F 41.5 °F 39.0 °F 82% 30.08 in 10.0 mi WNW 4.6 mph - 0.00 in   Overcast
9:53 AM 45.0 °F 41.2 °F 37.9 °F 76% 30.08 in 10.0 mi WNW 6.9 mph - N/A   Mostly Cloudy
10:53 AM 48.0 °F - 37.9 °F 68% 30.12 in 10.0 mi NW 6.9 mph - N/A   Mostly Cloudy
11:53 AM 48.9 °F - 36.0 °F 61% 30.13 in 10.0 mi Variable 4.6 mph - N/A   Scattered Clouds
12:53 PM 53.1 °F - 37.0 °F 55% 30.12 in 10.0 mi WNW 10.4 mph - N/A   Partly Cloudy
1:53 PM 55.0 °F - 35.1 °F 47% 30.15 in 10.0 mi West 10.4 mph 21.9 mph N/A   Clear
2:53 PM 54.0 °F - 33.1 °F 45% 30.17 in 10.0 mi WNW 11.5 mph - N/A   Clear
3:53 PM 54.0 °F - 30.9 °F 41% 30.18 in 10.0 mi WSW 8.1 mph - N/A   Clear
4:53 PM 54.0 °F - 28.9 °F 38% 30.16 in 10.0 mi NW 10.4 mph - N/A   Clear
5:53 PM 54.0 °F - 28.9 °F 38% 30.19 in 10.0 mi NNW 8.1 mph - N/A   Clear
6:53 PM 51.1 °F - 30.0 °F 44% 30.21 in 10.0 mi NNW 9.2 mph - N/A   Clear
7:53 PM 46.9 °F - 30.9 °F 54% 30.23 in 10.0 mi NNW 10.4 mph - N/A   Partly Cloudy
8:53 PM 45.0 °F 41.2 °F 30.9 °F 58% 30.23 in 10.0 mi North 6.9 mph - N/A   Scattered Clouds
9:53 PM 44.1 °F 40.1 °F 32.0 °F 63% 30.25 in 10.0 mi NNW 6.9 mph - N/A   Mostly Cloudy
10:53 PM 43.0 °F 39.5 °F 33.1 °F 68% 30.25 in 10.0 mi North 5.8 mph - N/A   Mostly Cloudy
11:53 PM 44.1 °F 40.1 °F 34.0 °F 68% 30.25 in 10.0 mi North 6.9 mph - N/A   Partly Cloudy